Location: Finkenwalde
(53.3770°N, 14.6418°E)
Time: 10:31:13
(UTC+00:00)

Cosmos 1461 - Pass Details

Date: 05 February 2023
Orbit: 492 x 644 km, 65.0° (Epoch: 19 March)

Event Time Altitude Azimuth Distance (km) Brightness Sun altitude
Rises 17:44:25 0° 223° (SW) 2,774 7.1 -16.9°
Reaches altitude 10° 17:46:35 10° 223° (SW) 1,905 6.2 -17.3°
Maximum altitude 17:50:54 88° 308° (NW) 613 3.0 -17.9°
Enters shadow 17:53:14 28° 43° (NE) 1,157 4.1 -18.3°
